Miscellaneous Local Product
Issued by NWS Hastings, NE

Home | Current Version | Previous Version | Text Only | Print | Product List | Glossary On
Versions: 1 2 3 4 5 6 7 8 9 10 11 12 13 14 15 16 17 18 19 20 21 22 23 24 25 26 27 28 29 30 31 32 33 34 35 36 37 38 39 40 41 42 43 44 45 46 47 48 49 50
000
AXUS43 KGID 251502
MISGRI

GID CWA HOURLY WEATHER ROUNDUP
NATIONAL WEATHER SERVICE HASTINGS NE
1000 AM CDT SUN JUN 25 2017

NOTE: "FAIR" INDICATES FEW OR NO CLOUDS BELOW 12,000 FEET WITH NO
SIGNIFICANT WEATHER AND/OR OBSTRUCTIONS TO VISIBILITY.

...SOUTH CENTRAL NEBRASKA...

CITY           SKY/WX    TMP DP  RH WIND       PRES   REMARKS
GRAND ISLAND   CLOUDY    62  45  53 CALM      30.38S
HASTINGS       PTSUNNY   59  45  59 CALM      30.39R
KEARNEY        CLOUDY    55  43  62 CALM      30.39R
ORD            PTSUNNY   64  40  41 VRB5      30.36S
YORK           CLOUDY    63  45  51 CALM      30.36S
AURORA         CLOUDY    63  45  51 CALM      30.37S
LEXINGTON      LGT RAIN  57  47  69 S5        30.38F
HOLDREGE       LGT RAIN  55  48  77 N7        30.40R
HEBRON         CLOUDY    62  48  60 CALM      30.36S

...NEBRASKA PANHANDLE...

CITY           SKY/WX    TMP DP  RH WIND       PRES   REMARKS
CHADRON        SUNNY     65  37  35 S6        30.35S
ALLIANCE       CLOUDY    58  41  53 SE5       30.37R
SCOTTSBLUFF    CLOUDY    65  37  35 S12       30.36F
SIDNEY         PTSUNNY   63  34  33 SE22      30.39S

...WESTERN AND NORTH CENTRAL NEBRASKA...

CITY           SKY/WX    TMP DP  RH WIND       PRES   REMARKS
VALENTINE      SUNNY     67  31  26 CALM      30.36F
AINSWORTH      SUNNY     63  37  37 CALM      30.37S
ONEILL         SUNNY     64  39  39 NW12G18   30.35F
BROKEN BOW     CLOUDY    64  43  46 CALM      30.37S
IMPERIAL       CLOUDY    55  44  66 SE13      30.39S
NORTH PLATTE   CLOUDY    61  46  57 SE8       30.38F
MCCOOK         CLOUDY    57  45  64 SE7       30.39S

...EASTERN NEBRASKA...

CITY           SKY/WX    TMP DP  RH WIND       PRES   REMARKS
NORFOLK        SUNNY     63  42  46 NW12      30.33S
SO SIOUX CITY  SUNNY     64  46  52 N17G25    30.31S
TEKAMAH        SUNNY     66  42  41 N17       30.32S
COLUMBUS       SUNNY     65  42  43 N8        30.35F
ALBION         SUNNY     66  39  36 NW9       30.36R
OMAHA EPPLEY   MOSUNNY   66  44  45 NW14      30.33R
OFFUTT AFB     SUNNY     67  42  41 NW8       30.32R
MILLARD        SUNNY     67  44  42 N8        30.33S
LINCOLN        MOSUNNY   69  46  43 NW8       30.35S
NEBRASKA CITY  MOSUNNY   66  46  48 NW7       30.33S
BEATRICE       MOSUNNY   66  46  46 NE5       30.34S
FALLS CITY     MOSUNNY   66  48  52 N7        30.32S

...NORTHERN KANSAS...

CITY           SKY/WX    TMP DP  RH WIND       PRES   REMARKS
GOODLAND       CLOUDY    53  52  96 NE18      30.36R
HILL CITY      CLOUDY    64  56  75 NE10      30.36S
NORTON         CLOUDY    55  43  62 NE6       30.38R
PHILLIPSBURG   PTSUNNY   64  45  48 NE10      30.35S
SMITH CENTER   SUNNY     61  45  55 NE9       30.36F
HAYS           CLOUDY    68  56  65 NE12      30.33S
RUSSELL        CLOUDY    64  57  78 NE9       30.32R
CONCORDIA      CLOUDY    66  46  48 E6        30.33S
SALINA         CLOUDY    68  58  70 NE9       30.33S
TOPEKA         SUNNY     71  50  47 NE10      30.30F



USA.gov is the U.S. government's official web portal to all federal, state and local government web resources and services.